This is the latest recevied weather packets stored in our database for station/object NK7E. If no packets are shown the sender has not sent any weather packets the latest 10 day(s).
| Time | Temp. | Humidity | Pressure | Rain* | Wind** | Luminosity | Snow |
|---|---|---|---|---|---|---|---|
| 1777869917 | 23.33° C | 28% | 1013.4 hPa | 0 mm | - | 0 W/m² | - |
| 1777869317 | 23.33° C | 27% | 1013.3 hPa | 0 mm | - | 0 W/m² | - |
| 1777868717 | 23.33° C | 26% | 1013.2 hPa | 0 mm | - | 0 W/m² | - |
| 1777868117 | 23.89° C | 26% | 1013.3 hPa | 0 mm | - | 0 W/m² | - |
| 1777867517 | 23.89° C | 25% | 1012.8 hPa | 0 mm | - | 0 W/m² | - |
| 1777866917 | 23.89° C | 24% | 1012.6 hPa | 0 mm | - | 0 W/m² | - |
| 1777866317 | 24.44° C | 23% | 1012.4 hPa | 0 mm | - | 0 W/m² | - |
| 1777865717 | 24.44° C | 22% | 1012.3 hPa | 0 mm | - | 0 W/m² | - |
| 1777865117 | 25° C | 21% | 1012.1 hPa | 0 mm | - | 0 W/m² | - |
| 1777864517 | 25° C | 21% | 1011.9 hPa | 0 mm | - | 0 W/m² | - |
| 1777863917 | 25.56° C | 20% | 1011.6 hPa | 0 mm | - | 0 W/m² | - |
| 1777863317 | 25.56° C | 19% | 1011.3 hPa | 0 mm | - | 0 W/m² | - |
| 1777862717 | 25.56° C | 19% | 1011.1 hPa | 0 mm | - | 0 W/m² | - |
| 1777862117 | 26.11° C | 18% | 1010.9 hPa | 0 mm | - | 0 W/m² | - |
| 1777861517 | 26.67° C | 17% | 1010.7 hPa | 0 mm | - | 0 W/m² | - |
| 1777860917 | 26.67° C | 17% | 1010.6 hPa | 0 mm | - | 0 W/m² | - |
| 1777860317 | 27.22° C | 16% | 1010.6 hPa | 0 mm | - | 1 W/m² | - |
| 1777859717 | 27.22° C | 15% | 1010.3 hPa | 0 mm | - | 11 W/m² | - |
| 1777859117 | 27.78° C | 15% | 1010.4 hPa | 0 mm | - | 20 W/m² | - |
| 1777858517 | 28.33° C | 14% | 1010.3 hPa | 0 mm | - | 30 W/m² | - |
| 1777857922 | 29.44° C | 14% | 1010 hPa | 0 mm | - | 69 W/m² | - |
| 1777857317 | 29.44° C | 13% | 1010.2 hPa | 0 mm | - | 126 W/m² | - |
| 1777856717 | 29.44° C | 13% | 1010.3 hPa | 0 mm | - | 173 W/m² | - |
| 1777856117 | 29.44° C | 13% | 1010.5 hPa | 0 mm | - | 165 W/m² | - |
| 1777855517 | 30° C | 12% | 1010.6 hPa | 0 mm | - | 153 W/m² | - |
* Rain latest hour (hover to see other rain measurements)
** Current wind speed in m/s (hover to see current wind gust speed)